Location: Clatteringshaws Loch
(55.0508°N, 4.2860°W)
Time: 21:17:55
(UTC+01:00)

Amateur Radio Satellites - All Passes

Search period start: 03 July 2015 20:47
Search period end: 04 July 2015 20:47
Location: Clatteringshaws Loch, 55.0508°N, 4.2860°W

Satellite Date Start Highest point End Downlink Frequencies (MHz)
Time Altitude Azimuth
DOVE 4 03 Jul 20:49:10 20:53:59 89° 254° (WSW) 20:58:33 437.250
Cosmos 2499 03 Jul 20:53:55 21:00:25 30° 56° (ENE) 21:07:25 435.465 / 435.565
DX 1 03 Jul 20:58:40 21:00:57 14° 51° (NE) 21:03:20 434.975-435.025
SEEDS 03 Jul 21:00:09 21:04:21 87° 78° (ENE) 21:08:36 437.485
CUBESAT XI-V 03 Jul 21:01:34 21:05:44 31° 298° (WNW) 21:09:49 437.345
CUBEBUG 2 03 Jul 21:03:32 21:07:26 36° 65° (ENE) 21:11:18 437.445
ZACube-1 03 Jul 21:11:13 21:14:50 29° 63° (ENE) 21:18:28 437.345
AAUSAT CUBESAT 2 03 Jul 21:14:15 21:18:24 86° 74° (ENE) 21:22:36 437.432
UKube-1 03 Jul 21:20:29 21:23:29 19° 55° (NE) 21:26:33 .
M-CUBED/EXP-1 PRIME 03 Jul 21:20:37 21:23:31 19° 97° (E) 21:26:41 437.505
Oscar 11 03 Jul 21:21:56 21:26:08 54° 69° (ENE) 21:30:22 145.826/435.025
STRAND 1 03 Jul 21:27:45 21:32:45 50° 295° (WNW) 21:37:42 437.568
AISAT 03 Jul 21:30:50 21:33:36 17° 53° (NE) 21:36:26 437.250
DELFI C3 03 Jul 21:37:56 21:41:52 55° 70° (ENE) 21:45:50 145.870
GOMX 1 03 Jul 21:38:05 21:42:27 28° 268° (W) 21:46:32 467.674
COMPASS 1 03 Jul 21:39:34 21:43:37 50° 261° (W) 21:47:44 437.405
HUMSAT D 03 Jul 21:39:41 21:43:07 26° 62° (ENE) 21:46:35 437.325/437.525
CINEMA 3 03 Jul 21:43:49 21:48:13 57° 259° (W) 21:52:28 145.822/145.860
PRISM 03 Jul 21:45:25 21:49:08 30° 298° (WNW) 21:52:47 437.425
CUTE 1.7 + AOD 2 03 Jul 21:46:22 21:50:10 31° 266° (W) 21:53:59 437.475
FUNcube-1 03 Jul 21:47:18 21:51:24 57° 70° (ENE) 21:55:30 145.935
SO-50 03 Jul 21:48:56 21:53:11 28° 353° (N) 21:57:31 436.795
CANX-2 03 Jul 21:49:46 21:53:26 27° 267° (W) 21:57:04 2200.000
GONETS M04 03 Jul 21:50:56 21:59:20 54° 270° (W) 22:07:37
50 SAT 03 Jul 21:51:33 21:54:18 19° 59° (ENE) 21:57:08 437.505
CUBEBUG 1 03 Jul 21:52:39 21:55:09 15° 52° (NE) 21:57:44 437.445
UWE-3 03 Jul 21:56:39 22:00:53 86° 79° (E) 22:05:05 435.000/436.395/437.385
ESTCUBE 1 03 Jul 21:58:18 22:01:26 19° 55° (NE) 22:04:40 437.505/2401.250
BRITE-PL 03 Jul 21:58:34 22:01:50 16° 276° (W) 22:04:50 437.365/2234.400
PCSat 03 Jul 22:06:00 22:10:27 25° 11° (N) 22:14:54 145.827
VELOX 1 03 Jul 22:18:53 22:22:55 34° 63° (ENE) 22:26:58 145.980
AUBIESAT-1 03 Jul 22:21:25 22:25:24 55° 108° (ESE) 22:29:42 437.475
DOVE 4 03 Jul 22:29:30 22:32:25 16° 274° (W) 22:35:06 437.250
HO-68 03 Jul 22:30:15 22:36:03 25° 273° (W) 22:41:41 435.675
DX 1 03 Jul 22:32:08 22:36:30 70° 70° (ENE) 22:40:53 434.975-435.025
SEEDS 03 Jul 22:38:29 22:40:50 14° 275° (W) 22:43:03 437.485
CUBEBUG 2 03 Jul 22:40:18 22:44:11 33° 265° (W) 22:48:00 437.445
Cosmos 2499 03 Jul 22:46:53 22:54:31 84° 260° (W) 23:02:46 435.465 / 435.565
ZACube-1 03 Jul 22:47:06 22:51:07 41° 263° (W) 22:55:04 437.345
AAUSAT CUBESAT 2 03 Jul 22:52:20 22:54:40 14° 275° (W) 22:56:53 437.432
M-CUBED/EXP-1 PRIME 03 Jul 22:54:42 22:58:42 69° 295° (WNW) 23:03:01 437.505
UKube-1 03 Jul 22:54:46 22:59:08 82° 254° (WSW) 23:03:31 .
ANTELSAT 03 Jul 22:54:51 22:57:49 18° 88° (E) 23:00:57 437.575/2403.000
SPROUT 03 Jul 22:58:18 23:01:13 18° 56° (NE) 23:04:14 437.525
Oscar 11 03 Jul 22:59:10 23:02:39 23° 269° (W) 23:06:05 145.826/435.025
AISAT 03 Jul 23:05:04 23:09:34 82° 73° (ENE) 23:14:04 437.250
TIGRISAT 03 Jul 23:07:27 23:10:50 22° 91° (E) 23:14:19 435.000
STRAND 1 03 Jul 23:08:29 23:10:56 13° 315° (NW) 23:13:14 437.568
QB50P1 03 Jul 23:11:26 23:12:54 12° 83° (E) 23:14:33 145.935-145.965
DELFI C3 03 Jul 23:14:12 23:17:18 21° 270° (W) 23:20:20 145.870
HUMSAT D 03 Jul 23:14:44 23:18:42 45° 261° (W) 23:22:40 437.325/437.525
50 SAT 03 Jul 23:24:48 23:28:36 60° 258° (WSW) 23:32:25 437.505
FUNcube-1 03 Jul 23:24:52 23:28:07 21° 270° (W) 23:31:15 145.935
NANOSAT C BR1 03 Jul 23:25:19 23:27:48 15° 86° (E) 23:30:24 145.865
CUBEBUG 1 03 Jul 23:26:23 23:30:50 75° 73° (ENE) 23:35:17 437.445
SO-50 03 Jul 23:30:26 23:34:57 33° 17° (NNE) 23:39:27 436.795
DUCHIFAT 1 03 Jul 23:32:26 23:35:13 17° 88° (E) 23:38:06 145.980
ESTCUBE 1 03 Jul 23:33:13 23:37:47 86° 258° (WSW) 23:42:22 437.505/2401.250
UWE-3 03 Jul 23:35:43 23:38:05 14° 274° (W) 23:40:18 435.000/436.395/437.385
POLYITAN 1 03 Jul 23:35:57 23:39:00 20° 89° (E) 23:42:09 437.675
BEESAT 03 Jul 23:42:13 23:43:33 11° 45° (NE) 23:45:03 436.000
TISAT 1 03 Jul 23:43:14 23:46:54 29° 62° (ENE) 23:50:36 437.305
UNISAT 6 03 Jul 23:46:16 23:50:29 48° 99° (E) 23:54:47 437.425
PCSat 03 Jul 23:49:51 23:55:06 46° 35° (NE) 00:00:21 145.827
GONETS M04 03 Jul 23:49:52 23:54:14 14° 293° (WNW) 23:58:10
Cosmos 2491 03 Jul 23:51:36 23:56:30 16° 32° (NNE) 00:01:37 435.465 / 435.565
BUGSAT 1 03 Jul 23:54:05 23:56:58 19° 89° (E) 23:59:54 437.445
VELOX 1 03 Jul 23:55:12 23:59:26 40° 263° (W) 00:03:39 145.980
SWISSCUBE 03 Jul 23:56:12 23:58:44 15° 49° (NE) 00:01:24 437.505
AUBIESAT-1 03 Jul 23:56:37 23:59:58 26° 305° (NW) 00:03:29 437.475
ITUPSAT 1 04 Jul 00:00:58 00:03:31 15° 49° (NE) 00:06:13 437.325
QB50P2 04 Jul 00:05:21 00:09:14 35° 96° (E) 00:13:07 145.880/145.840
POPSAT HIP 1 04 Jul 00:06:21 00:10:13 34° 96° (E) 00:14:06 437.405
DX 1 04 Jul 00:10:03 00:13:15 19° 271° (W) 00:16:22 434.975-435.025
M-CUBED/EXP-1 PRIME 04 Jul 00:30:46 00:33:00 14° 313° (NW) 00:35:13 437.505
ANTELSAT 04 Jul 00:30:47 00:35:08 72° 288° (WNW) 00:39:33 437.575/2403.000
SPROUT 04 Jul 00:32:29 00:36:49 81° 255° (WSW) 00:41:10 437.525
UKube-1 04 Jul 00:33:54 00:36:03 13° 275° (W) 00:38:01 .
Cosmos 2499 04 Jul 00:40:59 00:46:48 23° 281° (WNW) 00:52:41 435.465 / 435.565
TIGRISAT 04 Jul 00:43:41 00:47:57 57° 290° (WNW) 00:52:16 435.000
AISAT 04 Jul 00:43:50 00:46:47 17° 273° (W) 00:49:35 437.250
QB50P1 04 Jul 00:45:21 00:49:35 78° 103° (ESE) 00:53:48 145.935-145.965
NANOSAT C BR1 04 Jul 01:00:00 01:04:15 80° 287° (WNW) 01:08:26 145.865
CUBEBUG 1 04 Jul 01:04:37 01:07:44 18° 272° (W) 01:10:46 437.445
DUCHIFAT 1 04 Jul 01:07:20 01:11:32 70° 289° (WNW) 01:15:42 145.980
SO-50 04 Jul 01:11:08 01:16:09 78° 39° (NE) 01:21:06 436.795
POLYITAN 1 04 Jul 01:11:09 01:15:20 63° 290° (WNW) 01:19:30 437.675
KKS-1 04 Jul 01:11:48 01:13:38 13° 49° (NE) 01:15:34 437.445
ESTCUBE 1 04 Jul 01:12:49 01:15:25 15° 276° (W) 01:17:53 437.505/2401.250
BEESAT 04 Jul 01:15:49 01:20:22 45° 65° (ENE) 01:24:58 436.000
TISAT 1 04 Jul 01:18:28 01:22:33 43° 261° (W) 01:26:37 437.305
UNISAT 6 04 Jul 01:23:24 01:27:08 28° 299° (WNW) 01:30:51 437.425
BUGSAT 1 04 Jul 01:28:48 01:32:52 62° 290° (WNW) 01:36:52 437.445
AIST 1 04 Jul 01:29:18 01:31:10 13° 53° (NE) 01:33:12
SWISSCUBE 04 Jul 01:31:02 01:35:46 63° 69° (ENE) 01:40:34 437.505
PCSat 04 Jul 01:33:24 01:38:41 53° 238° (WSW) 01:43:56 145.827
ITUPSAT 1 04 Jul 01:35:52 01:40:36 63° 69° (ENE) 01:45:24 437.325
QB50P2 04 Jul 01:41:16 01:45:09 35° 296° (WNW) 01:48:58 145.880/145.840
POPSAT HIP 1 04 Jul 01:42:16 01:46:08 35° 295° (WNW) 01:49:57 437.405
Cosmos 2491 04 Jul 01:48:14 01:56:29 43° 61° (ENE) 02:04:45 435.465 / 435.565
RS-15 04 Jul 02:02:53 02:11:09 27° 104° (ESE) 02:20:01 29.354- 29.394
STARS 04 Jul 02:04:30 02:07:42 20° 56° (ENE) 02:10:59 437.465
ANTELSAT 04 Jul 02:08:55 02:11:16 14° 308° (NW) 02:13:31 437.575/2403.000
SPROUT 04 Jul 02:11:39 02:13:42 13° 276° (W) 02:15:35 437.525
Gurwin Techsat 1B 04 Jul 02:18:38 02:21:14 14° 82° (E) 02:24:04 435.225
Oscar 19 04 Jul 02:19:28 02:24:09 35° 95° (E) 02:28:52 437.125/150
QB50P1 04 Jul 02:22:03 02:25:01 18° 304° (WNW) 02:27:53 145.935-145.965
TIGRISAT 04 Jul 02:22:16 02:23:55 12° 310° (NW) 02:25:27 435.000
ITAMSAT 1 04 Jul 02:29:53 02:32:56 16° 84° (E) 02:36:09 435.822/435.867
YUBILEINY 04 Jul 02:34:12 02:40:32 24° 75° (ENE) 02:47:07 435.215
NANOSAT C BR1 04 Jul 02:37:02 02:39:28 15° 307° (NW) 02:41:47 145.865
DUCHIFAT 1 04 Jul 02:44:34 02:46:40 13° 308° (NW) 02:48:39 145.980
KKS-1 04 Jul 02:45:04 02:49:27 58° 69° (ENE) 02:53:51 437.445
POLYITAN 1 04 Jul 02:48:42 02:50:30 12° 309° (NW) 02:52:10 437.675
SO-50 04 Jul 02:52:08 02:56:20 27° 241° (WSW) 03:00:24 436.795
BEESAT 04 Jul 02:54:03 02:58:23 33° 266° (W) 03:02:42 436.000
MOZHAYETS 4 04 Jul 02:58:04 03:00:39 15° 52° (NE) 03:03:23
AIST 1 04 Jul 03:05:24 03:09:49 68° 76° (ENE) 03:14:09
BUGSAT 1 04 Jul 03:06:02 03:07:35 12° 309° (NW) 03:09:01 437.445
SWISSCUBE 04 Jul 03:10:10 03:14:03 24° 270° (W) 03:17:55 437.505
AO-7 04 Jul 03:10:23 03:12:03 11° 72° (ENE) 03:14:20 29.400- 29.500
ITUPSAT 1 04 Jul 03:15:02 03:18:56 24° 270° (W) 03:22:47 437.325
JAS-2 04 Jul 03:16:31 03:20:39 18° 83° (E) 03:25:19 435.910
PCSat 04 Jul 03:19:22 03:21:03 11° 257° (WSW) 03:22:28 145.827
STARS 04 Jul 03:39:19 03:43:44 74° 256° (WSW) 03:48:08 437.465
Cosmos 2491 04 Jul 03:45:17 03:53:56 63° 267° (W) 04:02:27 435.465 / 435.565
Gurwin Techsat 1B 04 Jul 03:56:59 04:02:20 70° 103° (ESE) 04:07:39 435.225
Oscar 19 04 Jul 03:58:47 04:03:41 46° 296° (WNW) 04:08:34 437.125/150
ITAMSAT 1 04 Jul 04:08:06 04:13:23 80° 104° (ESE) 04:18:38 435.822/435.867
RS-15 04 Jul 04:10:56 04:21:50 76° 129° (SE) 04:33:15 29.354- 29.394
KKS-1 04 Jul 04:22:51 04:26:27 23° 269° (W) 04:29:59 437.445
YUBILEINY 04 Jul 04:27:29 04:36:11 81° 98° (E) 04:44:56 435.215
MOZHAYETS 4 04 Jul 04:32:36 04:37:10 72° 72° (ENE) 04:41:48
AIST 1 04 Jul 04:43:57 04:47:00 18° 275° (W) 04:49:55
CUBESAT XI-V 04 Jul 04:58:25 05:01:50 21° 56° (NE) 05:05:21 437.345
AO-7 04 Jul 04:59:37 05:07:35 45° 98° (E) 05:15:33 29.400- 29.500
JAS-2 04 Jul 05:00:29 05:06:48 72° 104° (ESE) 05:13:55 435.910
HORYU 2 04 Jul 05:06:23 05:10:46 52° 100° (E) 05:15:09 437.375
Cosmos 2504 04 Jul 05:15:09 05:20:08 22° 78° (ENE) 05:25:20 435.465 / 435.565
STARS 04 Jul 05:19:17 05:21:03 12° 277° (W) 05:22:37 437.465
PRISM 04 Jul 05:33:19 05:35:44 15° 53° (NE) 05:38:15 437.425
STRAND 1 04 Jul 05:34:18 05:38:05 22° 53° (NE) 05:41:59 437.568
Gurwin Techsat 1B 04 Jul 05:37:29 05:41:57 27° 304° (NW) 05:46:20 435.225
Oscar 19 04 Jul 05:39:55 05:41:59 12° 316° (NW) 05:43:53 437.125/150
Cosmos 2491 04 Jul 05:43:41 05:49:09 18° 290° (WNW) 05:54:13 435.465 / 435.565
ITAMSAT 1 04 Jul 05:48:16 05:52:26 24° 306° (NW) 05:56:30 435.822/435.867
MOZHAYETS 4 04 Jul 06:11:35 06:14:58 19° 273° (W) 06:18:15
RS-15 04 Jul 06:23:59 06:34:58 60° 339° (NNW) 06:46:28 29.354- 29.394
YUBILEINY 04 Jul 06:26:20 06:34:07 34° 305° (NW) 06:41:48 435.215
CUBESAT XI-V 04 Jul 06:34:03 06:38:47 82° 256° (WSW) 06:43:33 437.345
CUTE-I 04 Jul 06:38:11 06:42:14 22° 88° (E) 06:46:23 437.470
M-CUBED/EXP-1 PRIME 04 Jul 06:43:19 06:44:40 12° 45° (NE) 06:46:09 437.505
HORYU 2 04 Jul 06:43:25 06:47:12 27° 300° (WNW) 06:50:58 437.375
JAS-2 04 Jul 06:46:09 06:51:36 33° 302° (WNW) 06:57:33 435.910
AO-7 04 Jul 06:52:33 07:00:48 62° 301° (WNW) 07:08:58 29.400- 29.500
Cosmos 2504 04 Jul 07:04:33 07:11:29 89° 281° (W) 07:18:32 435.465 / 435.565
PRISM 04 Jul 07:06:22 07:10:34 82° 74° (ENE) 07:14:49 437.425
STRAND 1 04 Jul 07:11:34 07:16:44 89° 250° (WSW) 07:21:58 437.568
O/OREOS (USA 219) 04 Jul 07:11:38 07:12:49 11° 98° (E) 07:14:12 437.305
Cubesat XI-IV 04 Jul 07:11:42 07:16:41 37° 95° (E) 07:21:40 437.490
GONETS M04 04 Jul 07:16:40 07:17:49 10° 62° (ENE) 07:19:32
AUBIESAT-1 04 Jul 07:42:16 07:45:16 30° 57° (ENE) 07:48:29 437.475
DANDE 04 Jul 07:43:07 07:47:42 21° 90° (E) 07:51:42 436.750
BEESAT 3 04 Jul 07:50:56 07:53:49 19° 118° (ESE) 07:56:48 437.485
BEESAT 2 04 Jul 08:02:07 08:05:05 20° 118° (ESE) 08:08:08 435.950
HO-68 04 Jul 08:02:31 08:04:39 12° 75° (ENE) 08:07:13 435.675
CUBESAT XI-V 04 Jul 08:14:24 08:17:04 14° 277° (W) 08:19:35 437.345
M-CUBED/EXP-1 PRIME 04 Jul 08:15:33 08:18:53 72° 66° (ENE) 08:22:26 437.505
BRITE-PL 04 Jul 08:15:51 08:18:57 19° 86° (E) 08:22:02 437.365/2234.400
CUTE-I 04 Jul 08:17:35 08:23:00 79° 290° (WNW) 08:28:22 437.470
CUSAT 1 04 Jul 08:25:08 08:30:49 47° 99° (E) 08:35:11 437.405
YUBILEINY 04 Jul 08:30:44 08:34:36 13° 335° (NNW) 08:38:14 435.215
JAS-2 04 Jul 08:33:51 08:35:08 11° 325° (NW) 08:36:14 435.910
RS-15 04 Jul 08:38:31 08:49:34 55° 11° (NNE) 09:01:11 29.354- 29.394
DOVE 4 04 Jul 08:42:27 08:44:26 13° 84° (E) 08:46:33 437.250
PRISM 04 Jul 08:44:04 08:46:38 15° 273° (W) 08:49:05 437.425
AO-7 04 Jul 08:45:47 08:52:14 25° 325° (NW) 08:58:32 29.400- 29.500
O/OREOS (USA 219) 04 Jul 08:47:01 08:51:26 67° 117° (ESE) 08:55:54 437.305
Cubesat XI-IV 04 Jul 08:51:47 08:56:57 47° 296° (WNW) 09:02:04 437.490
STRAND 1 04 Jul 08:53:14 08:56:45 18° 274° (W) 09:00:08 437.568
Cosmos 2504 04 Jul 08:59:16 09:04:51 25° 307° (NW) 09:10:23 435.465 / 435.565
GONETS M04 04 Jul 09:04:21 09:12:19 42° 86° (E) 09:20:22
AIST 2 04 Jul 09:15:54 09:19:29 27° 121° (ESE) 09:23:08 435.215
COMPASS 1 04 Jul 09:16:21 09:19:11 18° 87° (E) 09:22:06 437.405
AUBIESAT-1 04 Jul 09:17:03 09:20:04 30° 258° (WSW) 09:23:14 437.475
UNISAT 6 04 Jul 09:17:25 09:20:15 18° 56° (NE) 09:23:11 437.425
DANDE 04 Jul 09:23:52 09:30:39 86° 282° (WNW) 09:35:42 436.750
CUTE 1.7 + AOD 2 04 Jul 09:23:55 09:27:38 28° 93° (E) 09:31:24 437.475
CANX-2 04 Jul 09:27:06 09:30:59 33° 94° (E) 09:34:54 2200.000
BEESAT 3 04 Jul 09:27:12 09:31:19 85° 317° (NW) 09:35:28 437.485
CINEMA 3 04 Jul 09:31:51 09:34:48 19° 89° (E) 09:37:51 145.822/145.860
GOMX 1 04 Jul 09:31:53 09:36:07 52° 100° (E) 09:40:12 467.674
QB50P2 04 Jul 09:31:59 09:33:54 13° 52° (NE) 09:35:56 145.880/145.840
POPSAT HIP 1 04 Jul 09:32:55 09:34:46 13° 52° (NE) 09:36:47 437.405
BEESAT 2 04 Jul 09:38:33 09:42:42 83° 317° (NW) 09:46:53 435.950
UWE-3 04 Jul 09:41:35 09:42:17 10° 82° (E) 09:43:11 435.000/436.395/437.385
Cosmos 2499 04 Jul 09:44:01 09:47:29 15° 72° (ENE) 09:51:20 435.465 / 435.565
HO-68 04 Jul 09:47:30 09:54:27 50° 99° (E) 10:01:23 435.675
ISS 04 Jul 09:50:01 09:52:18 18° 151° (SSE) 09:54:38 145.825
M-CUBED/EXP-1 PRIME 04 Jul 09:52:43 09:54:19 13° 267° (W) 09:55:51 437.505
BRITE-PL 04 Jul 09:53:37 09:58:06 67° 289° (WNW) 10:02:19 437.365/2234.400
CUTE-I 04 Jul 09:58:32 10:02:23 20° 310° (NW) 10:06:07 437.470
ANTELSAT 04 Jul 10:00:34 10:04:29 37° 65° (ENE) 10:08:26 437.575/2403.000
CUSAT 1 04 Jul 10:08:22 10:13:31 32° 293° (WNW) 10:17:30 437.405
QB50P1 04 Jul 10:10:09 10:13:31 24° 60° (ENE) 10:16:56 145.935-145.965
SEEDS 04 Jul 10:12:54 10:17:10 64° 102° (ESE) 10:21:24 437.485
TIGRISAT 04 Jul 10:13:00 10:17:04 45° 67° (ENE) 10:21:09 435.000
DOVE 4 04 Jul 10:18:44 10:22:59 89° 289° (WNW) 10:27:08 437.250
CUBEBUG 2 04 Jul 10:23:33 10:27:13 29° 94° (E) 10:30:58 437.445
NANOSAT C BR1 04 Jul 10:24:12 10:27:53 30° 62° (ENE) 10:31:35 145.865
AAUSAT CUBESAT 2 04 Jul 10:25:26 10:29:37 61° 101° (E) 10:33:49 437.432
O/OREOS (USA 219) 04 Jul 10:27:26 10:31:17 27° 319° (NW) 10:35:07 437.305
ZACube-1 04 Jul 10:28:25 10:31:43 22° 91° (E) 10:35:06 437.345
DUCHIFAT 1 04 Jul 10:31:11 10:34:59 33° 64° (ENE) 10:38:48 145.980
Cubesat XI-IV 04 Jul 10:33:27 10:35:57 13° 317° (NW) 10:38:18 437.490
POLYITAN 1 04 Jul 10:35:27 10:39:21 37° 65° (ENE) 10:43:17 437.675
UKube-1 04 Jul 10:37:33 10:38:22 11° 82° (E) 10:39:26 .
AO-7 04 Jul 10:37:59 10:42:14 15° 353° (N) 10:46:26 29.400- 29.500
Oscar 11 04 Jul 10:38:04 10:42:12 41° 97° (E) 10:46:20 145.826/435.025
DELFI C3 04 Jul 10:44:52 10:48:38 35° 96° (E) 10:52:24 145.870
BUGSAT 1 04 Jul 10:50:27 10:54:17 35° 65° (ENE) 10:58:08 437.445
COMPASS 1 04 Jul 10:51:07 10:55:21 71° 288° (WNW) 10:59:34 437.405
RS-15 04 Jul 10:51:52 11:03:26 86° 41° (NE) 11:15:33 29.354- 29.394
HUMSAT D 04 Jul 10:51:54 10:54:46 18° 88° (E) 10:57:45 437.325/437.525
UNISAT 6 04 Jul 10:52:17 10:56:34 82° 255° (WSW) 11:00:52 437.425
AIST 2 04 Jul 10:53:32 10:57:48 66° 321° (NW) 11:02:04 435.215
50 SAT 04 Jul 10:55:47 10:56:16 10° 83° (E) 10:56:57 437.505
CUTE 1.7 + AOD 2 04 Jul 10:59:38 11:03:43 43° 293° (WNW) 11:07:47 437.475
GONETS M04 04 Jul 11:00:13 11:08:56 63° 290° (WNW) 11:17:37
CANX-2 04 Jul 11:03:00 11:06:59 38° 294° (WNW) 11:10:57 2200.000
FUNcube-1 04 Jul 11:04:25 11:08:27 44° 98° (E) 11:12:32 145.935
QB50P2 04 Jul 11:04:52 11:09:05 67° 71° (ENE) 11:13:18 145.880/145.840
POPSAT HIP 1 04 Jul 11:05:44 11:09:56 66° 71° (ENE) 11:14:10 437.405
BEESAT 3 04 Jul 11:06:11 11:09:47 28° 339° (NNW) 11:13:23 437.485
CINEMA 3 04 Jul 11:08:21 11:12:28 62° 289° (WNW) 11:16:36 145.822/145.860
DANDE 04 Jul 11:09:46 11:14:18 20° 301° (WNW) 11:17:56 436.750
GOMX 1 04 Jul 11:10:30 11:14:02 24° 301° (WNW) 11:17:24 467.674
UWE-3 04 Jul 11:15:31 11:19:43 70° 104° (ESE) 11:23:57 435.000/436.395/437.385
BEESAT 2 04 Jul 11:17:40 11:21:17 28° 340° (NNW) 11:24:54 435.950
ESTCUBE 1 04 Jul 11:20:14 11:22:19 13° 83° (E) 11:24:35 437.505/2401.250
ISS 04 Jul 11:25:07 11:28:11 40° 170° (S) 11:31:16 145.825
Cosmos 2499 04 Jul 11:32:16 11:39:11 63° 95° (E) 11:46:21 435.465 / 435.565
BRITE-PL 04 Jul 11:33:36 11:35:49 13° 310° (NW) 11:37:51 437.365/2234.400
HO-68 04 Jul 11:35:25 11:42:17 50° 301° (WNW) 11:49:05 435.675
ANTELSAT 04 Jul 11:37:26 11:41:21 33° 265° (W) 11:45:14 437.575/2403.000
VELOX 1 04 Jul 11:38:29 11:42:06 24° 91° (E) 11:45:45 145.980
QB50P1 04 Jul 11:44:55 11:49:07 56° 259° (W) 11:53:19 145.935-145.965
SEEDS 04 Jul 11:49:20 11:52:36 22° 301° (WNW) 11:55:50 437.485
DX 1 04 Jul 11:49:30 11:53:43 47° 100° (E) 11:57:56 434.975-435.025
TIGRISAT 04 Jul 11:50:21 11:54:02 27° 267° (W) 11:57:40 435.000
DOVE 4 04 Jul 11:57:38 12:00:12 16° 306° (NW) 12:02:38 437.250
NANOSAT C BR1 04 Jul 11:59:33 12:03:36 42° 262° (W) 12:07:39 145.865
CUBEBUG 2 04 Jul 12:00:08 12:04:03 40° 294° (WNW) 12:08:01 437.445
AAUSAT CUBESAT 2 04 Jul 12:01:37 12:04:55 22° 300° (WNW) 12:08:09 437.432
ZACube-1 04 Jul 12:04:18 12:08:24 54° 291° (WNW) 12:12:33 437.345
Oscar 19 04 Jul 12:05:51 12:09:44 23° 54° (NE) 12:13:42 437.125/150
DUCHIFAT 1 04 Jul 12:06:48 12:10:45 37° 263° (W) 12:14:43 145.980
Gurwin Techsat 1B 04 Jul 12:10:23 12:12:11 12° 42° (NE) 12:14:09 435.225
O/OREOS (USA 219) 04 Jul 12:10:55 12:12:17 11° 344° (NNW) 12:13:35 437.305
UKube-1 04 Jul 12:11:06 12:15:27 68° 103° (ESE) 12:19:45 .
POLYITAN 1 04 Jul 12:11:27 12:15:18 33° 265° (W) 12:19:09 437.675
SPROUT 04 Jul 12:13:56 12:15:19 12° 83° (E) 12:16:54 437.525
Oscar 11 04 Jul 12:14:26 12:18:18 32° 297° (WNW) 12:22:09 145.826/435.025
ITAMSAT 1 04 Jul 12:18:38 12:20:50 13° 43° (NE) 12:23:10 435.822/435.867
DELFI C3 04 Jul 12:20:02 12:23:43 33° 295° (WNW) 12:27:22 145.870
AISAT 04 Jul 12:25:03 12:29:28 61° 102° (ESE) 12:33:51 437.250
BUGSAT 1 04 Jul 12:25:52 12:29:47 35° 264° (W) 12:33:38 437.445
AO-7 04 Jul 12:26:49 12:31:51 18° 21° (NNE) 12:37:02 29.400- 29.500
HUMSAT D 04 Jul 12:26:51 12:30:59 66° 288° (WNW) 12:35:06 437.325/437.525
50 SAT 04 Jul 12:27:45 12:31:40 75° 104° (ESE) 12:35:36 437.505
COMPASS 1 04 Jul 12:28:11 12:30:21 14° 307° (NW) 12:32:23 437.405
YUBILEINY 04 Jul 12:31:57 12:38:13 22° 42° (NE) 12:44:43 435.215
UNISAT 6 04 Jul 12:32:13 12:34:10 12° 276° (W) 12:35:56 437.425
AIST 2 04 Jul 12:33:24 12:37:03 26° 344° (NNW) 12:40:41 435.215
FUNcube-1 04 Jul 12:41:02 12:44:39 28° 298° (WNW) 12:48:15 145.935
QB50P2 04 Jul 12:42:21 12:45:26 19° 271° (W) 12:48:25 145.880/145.840
POPSAT HIP 1 04 Jul 12:43:11 12:46:16 19° 271° (W) 12:49:16 437.405
CUBEBUG 1 04 Jul 12:44:23 12:48:43 55° 101° (E) 12:53:00 437.445
BEESAT 3 04 Jul 12:45:40 12:48:50 21° 3° (N) 12:52:00 437.485
CINEMA 3 04 Jul 12:47:23 12:48:57 12° 309° (NW) 12:50:23 145.822/145.860
UWE-3 04 Jul 12:52:49 12:55:52 20° 302° (WNW) 12:58:53 435.000/436.395/437.385
ESTCUBE 1 04 Jul 12:55:27 13:00:03 78° 105° (ESE) 13:04:36 437.505/2401.250
TISAT 1 04 Jul 12:56:12 12:59:09 19° 89° (E) 13:02:11 437.305
BEESAT 2 04 Jul 12:57:14 13:00:27 21° 3° (N) 13:03:40 435.950
ISS 04 Jul 13:01:11 13:04:17 41° 189° (S) 13:07:22 145.825
GONETS M04 04 Jul 13:01:28 13:08:01 22° 317° (NW) 13:14:20
RS-15 04 Jul 13:04:34 13:15:08 42° 247° (WSW) 13:25:54 29.354- 29.394
VELOX 1 04 Jul 13:14:38 13:18:59 54° 292° (WNW) 13:23:17 145.980
HO-68 04 Jul 13:23:58 13:28:35 18° 325° (NW) 13:33:02 435.675
DX 1 04 Jul 13:26:02 13:29:50 29° 299° (WNW) 13:33:32 434.975-435.025
Cosmos 2499 04 Jul 13:26:27 13:32:54 36° 300° (WNW) 13:39:29 435.465 / 435.565
JAS-2 04 Jul 13:38:44 13:42:00 17° 45° (NE) 13:45:34 435.910
ZACube-1 04 Jul 13:42:54 13:43:58 11° 310° (NW) 13:44:52 437.345
Oscar 19 04 Jul 13:43:27 13:48:36 83° 256° (WSW) 13:53:47 437.125/150
Gurwin Techsat 1B 04 Jul 13:46:00 13:50:59 43° 63° (ENE) 13:56:01 435.225
UKube-1 04 Jul 13:47:52 13:51:13 22° 303° (WNW) 13:54:28 .
SPROUT 04 Jul 13:47:57 13:52:16 75° 104° (ESE) 13:56:33 437.525
ITAMSAT 1 04 Jul 13:54:16 13:59:15 47° 65° (ENE) 14:04:18 435.822/435.867
AISAT 04 Jul 14:02:10 14:05:44 24° 302° (WNW) 14:09:13 437.250
50 SAT 04 Jul 14:03:17 14:05:52 17° 303° (WNW) 14:08:23 437.505
HUMSAT D 04 Jul 14:04:13 14:06:01 12° 308° (NW) 14:07:43 437.325/437.525
AIST 2 04 Jul 14:13:21 14:16:46 23° 7° (N) 14:20:11 435.215
AO-7 04 Jul 14:15:06 14:22:29 38° 47° (NE) 14:29:59 29.400- 29.500
CUBEBUG 1 04 Jul 14:21:11 14:24:49 25° 300° (WNW) 14:28:22 437.445
BEESAT 3 04 Jul 14:24:02 14:27:48 33° 26° (NNE) 14:31:32 437.485
YUBILEINY 04 Jul 14:28:38 14:37:18 62° 70° (ENE) 14:46:01 435.215
TISAT 1 04 Jul 14:31:12 14:35:23 65° 290° (WNW) 14:39:32 437.305
ESTCUBE 1 04 Jul 14:33:04 14:36:27 20° 304° (NW) 14:39:45 437.505/2401.250
BEESAT 2 04 Jul 14:35:43 14:39:31 34° 26° (NNE) 14:43:18 435.950
HORYU 2 04 Jul 14:36:27 14:39:43 21° 56° (ENE) 14:43:05 437.375
ISS 04 Jul 14:37:46 14:40:11 19° 209° (SSW) 14:42:34 145.825
BEESAT 04 Jul 14:46:19 14:50:51 39° 97° (E) 14:55:22 436.000
Cosmos 2504 04 Jul 14:49:51 14:53:51 16° 42° (NE) 14:58:13 435.465 / 435.565
VELOX 1 04 Jul 14:53:00 14:54:40 12° 312° (NW) 14:56:10 145.980
Cosmos 2491 04 Jul 14:59:26 15:07:04 36° 82° (E) 15:14:50 435.465 / 435.565
SWISSCUBE 04 Jul 15:01:47 15:06:33 56° 101° (ESE) 15:11:17 437.505
ITUPSAT 1 04 Jul 15:06:55 15:11:42 56° 101° (E) 15:16:27 437.325
GONETS M04 04 Jul 15:08:57 15:09:27 10° 350° (N) 15:09:50
JAS-2 04 Jul 15:20:59 15:26:10 67° 69° (ENE) 15:31:45 435.910
STARS 04 Jul 15:23:19 15:25:17 13° 84° (E) 15:27:25 437.465
SPROUT 04 Jul 15:24:49 15:27:56 19° 303° (WNW) 15:30:57 437.525
Oscar 19 04 Jul 15:25:36 15:28:51 16° 276° (W) 15:31:55 437.125/150
Gurwin Techsat 1B 04 Jul 15:26:02 15:31:03 41° 264° (W) 15:36:05 435.225
Cosmos 2499 04 Jul 15:26:29 15:28:56 12° 329° (NNW) 15:31:10 435.465 / 435.565
O/OREOS (USA 219) 04 Jul 15:31:42 15:35:04 20° 35° (NE) 15:38:29 437.305
ITAMSAT 1 04 Jul 15:34:08 15:38:56 36° 265° (W) 15:43:45 435.822/435.867
AIST 1 04 Jul 15:42:40 15:46:23 27° 89° (E) 15:50:10
AIST 2 04 Jul 15:52:12 15:56:17 42° 31° (NNE) 16:00:18 435.215
BEESAT 3 04 Jul 16:01:58 16:06:03 67° 227° (SW) 16:10:03 437.485
KKS-1 04 Jul 16:05:28 16:09:42 43° 98° (E) 16:13:57 437.445
AO-7 04 Jul 16:06:21 16:14:45 82° 250° (WSW) 16:23:12 29.400- 29.500
TISAT 1 04 Jul 16:08:31 16:10:26 13° 309° (NW) 16:12:13 437.305
HORYU 2 04 Jul 16:11:33 16:15:57 72° 255° (WSW) 16:20:25 437.375
BEESAT 2 04 Jul 16:13:46 16:17:52 66° 228° (SW) 16:21:54 435.950
PCSat 04 Jul 16:22:11 16:26:55 32° 116° (ESE) 16:31:44 145.827
MOZHAYETS 4 04 Jul 16:22:37 16:23:55 11° 81° (E) 16:25:27
BEESAT 04 Jul 16:24:15 16:28:43 38° 297° (WNW) 16:33:08 436.000
YUBILEINY 04 Jul 16:25:51 16:33:56 43° 274° (W) 16:41:55 435.215
CUTE-I 04 Jul 16:29:36 16:32:57 17° 48° (NE) 16:36:24 437.470
SWISSCUBE 04 Jul 16:40:01 16:44:11 29° 301° (WNW) 16:48:16 437.505
Cosmos 2504 04 Jul 16:41:07 16:48:11 50° 68° (ENE) 16:55:46 435.465 / 435.565
ITUPSAT 1 04 Jul 16:45:12 16:49:22 29° 301° (WNW) 16:53:27 437.325
Cosmos 2491 04 Jul 16:54:34 17:03:25 73° 286° (WNW) 17:12:15 435.465 / 435.565
HO-68 04 Jul 16:56:13 16:58:08 11° 19° (NNE) 17:00:11 435.675
STARS 04 Jul 16:58:08 17:02:32 81° 105° (ESE) 17:06:56 437.465
Cubesat XI-IV 04 Jul 17:02:20 17:06:42 26° 55° (NE) 17:11:09 437.490
JAS-2 04 Jul 17:07:44 17:12:00 24° 272° (W) 17:16:23 435.910
GONETS M04 04 Jul 17:08:03 17:11:38 13° 24° (NNE) 17:15:28
O/OREOS (USA 219) 04 Jul 17:10:41 17:15:14 78° 57° (ENE) 17:19:47 437.305
SO-50 04 Jul 17:13:19 17:16:51 21° 116° (ESE) 17:20:34 436.795
AIST 1 04 Jul 17:19:38 17:23:53 44° 289° (WNW) 17:28:09
AIST 2 04 Jul 17:30:50 17:34:56 48° 232° (SW) 17:38:58 435.215
BEESAT 3 04 Jul 17:41:31 17:43:18 12° 247° (WSW) 17:44:56 437.485
KKS-1 04 Jul 17:42:18 17:46:16 32° 298° (WNW) 17:50:10 437.445
HORYU 2 04 Jul 17:51:50 17:53:31 12° 277° (W) 17:55:00 437.375
BEESAT 2 04 Jul 17:53:30 17:55:13 12° 247° (WSW) 17:56:46 435.950
MOZHAYETS 4 04 Jul 17:57:30 18:02:10 66° 102° (ESE) 18:06:48
BRITE-PL 04 Jul 17:57:50 17:59:56 13° 49° (NE) 18:02:10 437.365/2234.400
AO-7 04 Jul 18:02:20 18:08:59 25° 274° (W) 18:15:25 29.400- 29.500
PCSat 04 Jul 18:04:40 18:10:04 67° 316° (NW) 18:15:32 145.827
CUTE-I 04 Jul 18:06:52 18:12:11 66° 69° (ENE) 18:17:34 437.470
DANDE 04 Jul 18:16:30 18:18:03 13° 52° (NE) 18:19:34 436.750
CUBESAT XI-V 04 Jul 18:24:30 18:27:27 17° 85° (E) 18:30:33 437.345
YUBILEINY 04 Jul 18:26:25 18:28:25 11° 298° (WNW) 18:29:53 435.215
Cosmos 2504 04 Jul 18:33:31 18:40:28 47° 270° (W) 18:47:50 435.465 / 435.565
STARS 04 Jul 18:35:24 18:38:31 19° 305° (NW) 18:41:32 437.465
HO-68 04 Jul 18:38:02 18:43:33 25° 44° (NE) 18:49:11 435.675
Cubesat XI-IV 04 Jul 18:41:00 18:46:24 74° 255° (WSW) 18:51:50 437.490
O/OREOS (USA 219) 04 Jul 18:50:59 18:54:11 19° 257° (WSW) 18:57:15 437.305
SO-50 04 Jul 18:52:00 18:56:51 88° 136° (SE) 19:01:50 436.795
CUTE 1.7 + AOD 2 04 Jul 18:52:09 18:52:30 10° 49° (NE) 18:53:01 437.475
CANX-2 04 Jul 18:54:25 18:55:45 11° 50° (NE) 18:57:13 2200.000
Cosmos 2491 04 Jul 18:55:06 19:02:10 25° 313° (NW) 19:09:03 435.465 / 435.565
CUSAT 1 04 Jul 18:55:22 18:58:10 41° 69° (ENE) 19:00:41 437.405
GONETS M04 04 Jul 19:04:30 19:12:10 33° 55° (NE) 19:19:55
GOMX 1 04 Jul 19:09:48 19:13:43 25° 60° (ENE) 19:17:31 467.674
STRAND 1 04 Jul 19:15:36 19:19:10 19° 86° (E) 19:22:51 437.568
Cosmos 2499 04 Jul 19:21:13 19:24:28 13° 35° (NE) 19:28:05 435.465 / 435.565
BRITE-PL 04 Jul 19:32:27 19:37:36 51° 68° (ENE) 19:42:26 437.365/2234.400
MOZHAYETS 4 04 Jul 19:35:18 19:39:03 24° 302° (WNW) 19:42:43
SEEDS 04 Jul 19:37:39 19:40:34 19° 57° (ENE) 19:43:35 437.485
CUTE-I 04 Jul 19:48:15 19:52:46 26° 270° (W) 19:57:14 437.470
AAUSAT CUBESAT 2 04 Jul 19:49:12 19:51:57 18° 56° (ENE) 19:54:47 437.432
PCSat 04 Jul 19:49:44 19:54:25 28° 341° (NNW) 19:59:06 145.827
DOVE 4 04 Jul 19:53:57 19:58:12 34° 64° (ENE) 20:02:15 437.250
CUBEBUG 2 04 Jul 19:55:30 19:56:50 11° 51° (NE) 19:58:17 437.445
DANDE 04 Jul 19:58:40 20:01:47 46° 263° (W) 20:04:24 436.750
CUBESAT XI-V 04 Jul 20:00:52 20:05:37 86° 286° (WNW) 20:10:19 437.345
Oscar 11 04 Jul 20:05:57 20:08:19 15° 53° (NE) 20:10:49 145.826/435.025
DELFI C3 04 Jul 20:07:33 20:08:21 11° 50° (NE) 20:09:18 145.870
COMPASS 1 04 Jul 20:14:09 20:17:46 30° 63° (ENE) 20:21:27 437.405
PRISM 04 Jul 20:16:55 20:21:02 49° 100° (E) 20:25:07 437.425
HO-68 04 Jul 20:23:15 20:30:23 75° 67° (ENE) 20:37:33 435.675
CUTE 1.7 + AOD 2 04 Jul 20:23:28 20:27:32 49° 68° (ENE) 20:31:39 437.475
Cubesat XI-IV 04 Jul 20:24:25 20:27:33 15° 277° (W) 20:30:30 437.490
CANX-2 04 Jul 20:26:44 20:30:52 57° 70° (ENE) 20:35:03 2200.000
Cosmos 2504 04 Jul 20:28:51 20:31:03 11° 292° (WNW) 20:32:51 435.465 / 435.565
FUNcube-1 04 Jul 20:33:05 20:35:27 15° 55° (NE) 20:37:54 145.935
SO-50 04 Jul 20:33:24 20:37:55 35° 339° (NNW) 20:42:31 436.795
